FW5910 Weather Reports


time (UTC)temp
F
wind
direction
speed
knots
gust
knots
rain 1hr
in
rain 24hr
in
rain mn
in
humidity
%
barometer
mb
20260831043735 57 228 0.0 0.0 0.00 0.02 0.02 73 1016.8
20260831043230 57 229 0.0 0.0 0.00 0.02 0.02 73 1016.8
20260831041727 57 112 0.0 0.0 0.00 0.02 0.02 74 1016.7
20260831041225 58 112 0.0 0.9 0.00 0.02 0.02 73 1016.6
20260831040724 57 112 0.0 0.9 0.00 0.02 0.02 73 1016.6
20260831040224 57 112 0.0 0.9 0.00 0.02 0.02 71 1016.5
20260831035723 56 113 0.0 0.9 0.00 0.02 0.02 71 1016.4
20260831035226 56 113 0.0 0.0 0.00 0.02 0.02 72 1016.5
20260831034723 56 113 0.0 0.0 0.00 0.02 0.02 73 1016.5
20260831034224 56 113 0.0 0.0 0.00 0.02 0.02 72 1016.4
20260831033220 57 113 0.0 0.9 0.00 0.02 0.02 75 1016.5
20260831032719 57 112 0.0 0.9 0.00 0.02 0.02 76 1016.4
20260831032216 57 112 0.0 0.9 0.00 0.02 0.02 75 1016.5
20260831031715 57 112 0.0 0.9 0.00 0.02 0.02 75 1016.5
20260831031217 57 113 0.0 0.9 0.00 0.02 0.02 73 1016.5
20260831030714 57 111 0.0 0.9 0.00 0.02 0.02 73 1016.4
20260831030210 57 111 0.0 0.9 0.00 0.02 0.02 72 1016.3
20260831025708 57 111 0.0 0.9 0.00 0.02 0.02 71 1016.2
20260831024706 57 147 0.0 0.9 0.00 0.02 0.02 70 1016.1
20260831024209 57 147 0.0 0.9 0.00 0.02 0.02 70 1016.0
20260831023709 57 147 0.0 0.0 0.00 0.02 0.02 73 1016.0
20260831023205 57 147 0.0 0.0 0.00 0.02 0.02 69 1016.0
20260831022704 57 147 0.0 0.9 0.00 0.02 0.02 69 1015.9
20260831022204 57 147 0.0 0.9 0.00 0.02 0.02 72 1015.7
20260831021702 58 147 0.0 0.0 0.00 0.02 0.02 72 1015.6
20260831021203 58 147 0.0 0.9 0.00 0.02 0.02 72 1015.7
20260831020704 58 147 0.0 0.9 0.00 0.02 0.02 74 1015.6
20260831020203 58 99 0.0 0.0 0.00 0.02 0.02 69 1015.6
20260831015703 59 99 0.0 0.0 0.00 0.02 0.02 70 1015.6
20260831015203 59 99 0.0 0.9 0.00 0.02 0.02 67 1015.5
20260831014704 59 99 0.0 0.9 0.00 0.02 0.02 65 1015.5
20260831014204 59 99 0.0 0.9 0.00 0.02 0.02 65 1015.5
20260831013703 59 100 0.0 1.7 0.00 0.02 0.02 68 1015.5
20260831013203 59 99 0.0 1.7 0.00 0.02 0.02 67 1015.6
20260831012702 60 106 0.9 1.7 0.00 0.02 0.02 66 1015.6
20260831012202 60 96 0.9 1.7 0.00 0.02 0.02 63 1015.5
20260831011702 60 91 0.9 1.7 0.00 0.02 0.02 64 1015.6
20260831011203 60 78 0.9 1.7 0.00 0.02 0.02 64 1015.7
20260831010702 60 17 0.0 0.9 0.00 0.02 0.02 62 1015.6
20260831010202 60 78 0.0 0.9 0.00 0.02 0.02 64 1015.5
20260831005703 60 78 0.0 0.9 0.00 0.02 0.02 64 1015.5
20260831005204 60 78 0.0 0.9 0.00 0.02 0.02 64 1015.5
20260831004704 60 78 0.0 0.9 0.00 0.02 0.02 62 1015.5
20260831004202 60 78 0.0 0.9 0.00 0.02 0.02 62 1015.6
20260831003702 60 78 0.0 1.7 0.00 0.02 0.02 59 1015.7
20260831003202 60 78 0.9 2.6 0.00 0.02 0.02 61 1015.6
20260831002705 60 87 0.9 2.6 0.00 0.02 0.02 59 1015.6
20260831001702 60 74 0.0 0.9 0.00 0.02 0.02 59 1015.6
20260831001202 60 345 0.0 0.9 0.00 0.02 0.02 61 1015.5
20260831000702 60 288 0.0 0.9 0.00 0.02 0.02 62 1015.4
20260831000203 60 232 0.0 0.0 0.00 0.02 0.02 62 1015.4
20260830235702 60 232 0.0 0.0 0.00 0.02 0.02 62 1015.5
20260830235203 60 232 0.0 0.0 0.00 0.02 0.02 63 1015.5
20260830234203 60 232 0.0 0.9 0.00 0.02 0.02 64 1015.5
20260830233202 60 99 0.0 0.9 0.00 0.02 0.02 64 1015.5
20260830232702 59 99 0.0 0.9 0.00 0.02 0.02 63 1015.5
20260830232203 59 98 0.0 0.9 0.00 0.02 0.02 62 1015.5
20260830231702 59 98 0.0 1.7 0.00 0.02 0.02 65 1015.5
20260830231202 58 98 0.0 1.7 0.00 0.02 0.02 65 1015.5
20260830230703 58 82 0.0 0.9 0.00 0.02 0.02 66 1015.5
20260830225703 58 82 0.0 0.9 0.00 0.02 0.02 73 1015.6
20260830225202 58 80 0.0 0.9 0.00 0.02 0.02 72 1015.5
20260830224202 57 104 0.0 0.9 0.00 0.02 0.02 74 1015.5
20260830223706 57 103 0.0 0.9 0.00 0.02 0.02 71 1015.6
20260830223206 58 104 0.0 0.9 0.00 0.02 0.02 71 1015.6
20260830222706 57 104 0.0 0.9 0.00 0.02 0.02 72 1015.5
20260830222202 57 138 0.0 0.9 0.00 0.02 0.02 70 1015.5
20260830221705 57 138 0.0 1.7 0.00 0.02 0.02 70 1015.6
20260830221203 57 119 0.0 1.7 0.00 0.02 0.02 74 1015.6
20260830220703 57 101 0.0 0.9 0.00 0.02 0.02 71 1015.7
20260830220208 57 164 0.0 0.9 0.00 0.02 0.02 71 1015.6
20260830215704 57 164 0.0 0.9 0.00 0.02 0.02 70 1015.6
20260830215202 57 130 0.0 1.7 0.00 0.02 0.02 70 1015.7
20260830214704 57 214 0.0 1.7 0.00 0.02 0.02 70 1015.7
20260830214202 57 92 0.0 1.7 0.00 0.02 0.02 69 1015.9
20260830213703 58 96 1.7 6.1 0.00 0.02 0.02 70 1015.9
20260830213203 57 96 2.6 6.1 0.00 0.02 0.02 66 1015.7
20260830212703 57 80 0.9 5.2 0.00 0.02 0.02 67 1015.7
20260830212204 57 88 0.0 0.9 0.00 0.02 0.02 71 1015.9
20260830211706 56 98 0.0 1.7 0.00 0.02 0.02 71 1015.9
20260830210702 56 86 0.0 1.7 0.00 0.02 0.02 72 1016.0
20260830210203 56 14 0.0 1.7 0.00 0.02 0.02 72 1016.0
20260830205704 56 14 0.0 1.7 0.00 0.02 0.02 71 1016.0
20260830204705 56 125 0.0 1.7 0.00 0.02 0.02 72 1015.9
20260830204202 56 134 0.0 2.6 0.00 0.02 0.02 72 1015.9
20260830203703 56 236 0.9 2.6 0.00 0.02 0.02 74 1015.7
20260830203202 56 109 0.9 2.6 0.00 0.02 0.02 70 1015.6
20260830202702 56 101 0.9 2.6 0.00 0.02 0.02 72 1015.6
20260830202158 56 322 0.0 1.7 0.00 0.02 0.02 74 1015.7
20260830201146 55 98 0.9 2.6 0.00 0.02 0.02 75 1015.7
20260830200640 55 195 0.9 2.6 0.00 0.02 0.02 73 1015.9
20260830200134 55 100 0.9 1.7 0.00 0.02 0.02 74 1015.6
20260830195135 55 114 0.9 3.5 0.00 0.02 0.02 74 1015.7
20260830194633 55 111 0.9 3.5 0.00 0.02 0.02 75 1015.6
20260830194133 55 98 0.0 1.7 0.00 0.02 0.02 76 1015.6
20260830193630 54 225 0.0 1.7 0.00 0.02 0.02 78 1015.6
20260830193134 54 265 0.0 0.9 0.00 0.02 0.02 75 1015.5
20260830192631 54 236 0.0 2.6 0.00 0.02 0.02 77 1015.4
20260830191631 54 125 0.9 1.7 0.00 0.02 0.02 77 1015.4
20260830190631 54 107 0.9 2.6 0.00 0.02 0.02 78 1015.4
20260830185630 53 290 0.0 2.6 0.00 0.02 0.02 76 1015.3
20260830185131 53 123 0.9 5.2 0.00 0.02 0.02 78 1015.3
20260830184631 53 224 0.9 5.2 0.00 0.02 0.02 77 1015.3
20260830184131 53 119 0.9 2.6 0.00 0.02 0.02 80 1015.3
20260830183631 53 41 0.9 2.6 0.00 0.02 0.02 76 1015.3
20260830183131 53 238 0.0 1.7 0.00 0.02 0.02 77 1015.2
20260830182633 53 105 0.0 1.7 0.00 0.02 0.02 81 1015.2
20260830182132 53 118 0.9 2.6 0.00 0.02 0.02 80 1015.2
20260830181631 53 130 0.9 2.6 0.00 0.02 0.02 79 1015.1
20260830181131 53 103 0.9 2.6 0.00 0.02 0.02 79 1015.2
20260830180136 52 217 0.9 3.5 0.00 0.02 0.02 83 1015.2
20260830175631 52 130 0.9 3.5 0.00 0.02 0.02 80 1015.1
20260830175132 52 187 0.0 1.7 0.00 0.02 0.02 83 1015.0
20260830174631 52 111 0.9 3.5 0.01 0.02 0.02 83 1015.0
20260830174131 52 135 0.9 5.2 0.01 0.02 0.02 83 1014.9
20260830173630 52 98 0.9 5.2 0.01 0.02 0.02 81 1014.9
20260830173131 52 214 1.7 4.3 0.01 0.02 0.02 84 1014.9
20260830172631 53 171 2.6 4.3 0.01 0.02 0.02 82 1014.9
20260830172130 52 73 2.6 4.3 0.01 0.02 0.02 82 1014.8
20260830171629 52 104 1.7 3.5 0.01 0.02 0.02 82 1014.9
20260830171130 52 78 1.7 3.5 0.01 0.02 0.02 81 1014.9
20260830170630 52 91 0.9 3.5 0.01 0.02 0.02 82 1014.6
20260830170129 52 114 0.9 2.6 0.01 0.02 0.02 84 1014.8
20260830165629 52 91 0.9 2.6 0.01 0.02 0.02 84 1014.8
20260830165130 52 119 0.9 2.6 0.01 0.02 0.02 85 1014.8
20260830164630 52 106 0.0 1.7 0.00 0.01 0.01 83 1014.6
20260830163628 51 289 0.0 0.9 0.01 0.01 0.01 83 1014.5
20260830163130 51 129 0.0 1.7 0.01 0.01 0.01 87 1014.5
20260830162629 51 207 0.0 1.7 0.01 0.01 0.01 88 1014.6
20260830162131 52 240 0.0 0.0 0.01 0.01 0.01 86 1014.5
20260830161629 52 295 0.0 0.0 0.01 0.01 0.01 85 1014.5
20260830161129 52 295 0.0 0.0 0.01 0.01 0.01 84 1014.5
20260830155624 53 148 0.9 3.5 0.01 0.01 0.01 78 1014.5
20260830155118 53 114 0.9 3.5 0.01 0.01 0.01 77 1014.6
20260830154613 53 257 0.0 0.9 0.01 0.01 0.00 75 1014.6
20260830154106 53 254 0.0 0.9 0.00 0.00 0.00 70 1014.6
20260830153603 54 239 0.0 0.9 0.00 0.00 0.00 73 1014.6
20260830153105 54 239 0.0 0.0 0.00 0.00 0.00 72 1014.6
20260830152606 54 239 0.0 0.9 0.00 0.00 0.00 71 1014.6
20260830152104 54 239 0.0 0.9 0.00 0.00 0.00 73 1014.8
20260830151102 53 227 0.0 0.9 0.00 0.00 0.00 69 1014.6
20260830150606 53 227 0.0 0.9 0.00 0.00 0.00 70 1014.6
20260830150105 53 227 0.0 0.9 0.00 0.00 0.00 67 1014.8
20260830145604 54 227 0.0 1.7 0.00 0.00 0.00 70 1014.8
20260830145103 54 72 0.0 1.7 0.00 0.00 0.00 69 1014.8
20260830144102 54 100 0.0 0.9 0.00 0.00 0.00 66 1014.6
20260830143603 54 39 0.0 0.9 0.00 0.00 0.00 66 1014.8
20260830143107 54 29 0.0 1.7 0.00 0.00 0.00 65 1014.8
20260830142603 53 236 0.0 1.7 0.00 0.00 0.00 69 1014.6
20260830141604 53 226 0.0 1.7 0.00 0.00 0.00 70 1014.6
20260830141103 53 237 0.9 5.2 0.00 0.00 0.00 70 1014.6
20260830140609 53 240 0.9 5.2 0.00 0.00 0.00 71 1014.6
20260830140105 53 74 0.0 1.7 0.00 0.00 0.00 76 1014.6
20260830135606 53 142 0.0 1.7 0.00 0.00 0.00 75 1014.6
20260830135102 53 349 0.0 1.7 0.00 0.00 0.00 71 1014.5
20260830134103 54 26 0.0 1.7 0.00 0.00 0.00 69 1014.5
20260830133605 55 10 0.0 1.7 0.00 0.00 0.00 63 1014.5
20260830132103 55 331 0.0 0.9 0.00 0.00 0.00 61 1014.4
20260830131607 55 331 0.0 1.7 0.00 0.00 0.00 61 1014.4
20260830130604 55 321 0.0 1.7 0.00 0.00 0.00 61 1014.3
20260830125604 55 89 0.0 0.9 0.00 0.00 0.00 61 1014.2
20260830125102 56 98 0.0 0.9 0.00 0.00 0.00 61 1014.1
20260830124605 56 95 0.0 0.9 0.00 0.00 0.00 58 1014.0
20260830124100 56 95 0.0 0.9 0.00 0.00 0.00 58 1013.9
20260830123549 55 146 0.0 0.9 0.00 0.00 0.00 58 1013.8
20260830123049 55 246 0.0 0.9 0.00 0.00 0.00 62 1013.8
20260830122538 56 224 0.0 0.9 0.00 0.00 0.00 60 1013.8
20260830122031 56 223 0.0 0.9 0.00 0.00 0.00 58 1013.8
20260830121528 56 223 0.0 1.7 0.00 0.00 0.00 58 1013.8
20260830121020 56 299 0.0 1.7 0.00 0.00 0.00 58 1013.8
20260830120513 56 231 0.0 0.0 0.00 0.00 0.00 58 1013.8
20260830120015 56 231 0.0 0.0 0.00 0.00 0.00 58 1013.8
20260830115512 56 233 0.0 0.9 0.00 0.00 0.00 58 1013.6
20260830115010 56 194 0.0 0.9 0.00 0.00 0.00 59 1013.4
20260830114512 56 194 0.0 0.9 0.00 0.00 0.00 58 1013.7
20260830113510 56 207 0.0 1.7 0.00 0.00 0.00 58 1013.8
20260830113007 56 232 0.0 0.9 0.00 0.00 0.00 58 1013.7
20260830112508 56 242 0.0 0.9 0.00 0.00 0.00 57 1013.7
20260830112005 56 242 0.0 0.9 0.00 0.00 0.00 57 1013.7
20260830111507 56 242 0.0 0.9 0.00 0.00 0.00 56 1013.7
20260830111005 56 219 0.0 0.9 0.00 0.00 0.00 56 1013.6
20260830110506 56 309 0.0 0.9 0.00 0.00 0.00 57 1013.6
20260830105504 56 292 0.0 0.9 0.00 0.00 0.00 56 1013.6
20260830105005 56 202 0.0 0.9 0.00 0.00 0.00 56 1013.6
20260830104503 56 198 0.0 0.9 0.00 0.00 0.00 57 1013.6
20260830104008 57 248 0.0 1.7 0.00 0.00 0.00 56 1013.6
20260830103502 57 142 0.9 1.7 0.00 0.00 0.00 57 1013.4
20260830102958 56 107 0.0 1.7 0.00 0.00 0.00 57 1013.3
20260830102456 56 281 0.0 0.9 0.00 0.00 0.00 56 1013.4
20260830101954 56 236 0.0 0.9 0.00 0.00 0.00 57 1013.4
20260830101455 56 126 0.0 1.7 0.00 0.00 0.00 56 1013.4
20260830100955 56 163 0.0 1.7 0.00 0.00 0.00 56 1013.6
20260830100454 56 114 0.0 1.7 0.00 0.00 0.00 54 1013.4
20260830095955 56 114 0.0 1.7 0.00 0.00 0.00 54 1013.6
20260830094955 56 226 0.0 0.9 0.00 0.00 0.00 56 1013.8
20260830094453 56 226 0.0 0.9 0.00 0.00 0.00 54 1013.7
20260830093953 56 267 0.0 1.7 0.00 0.00 0.00 55 1013.6
20260830092953 56 222 0.0 0.9 0.00 0.00 0.00 54 1013.6
20260830091954 57 55 0.0 0.9 0.00 0.00 0.00 52 1013.6
20260830091447 57 190 0.0 0.0 0.00 0.00 0.00 52 1013.4
20260830090445 56 189 0.0 1.7 0.00 0.00 0.00 53 1013.6
20260830085946 56 234 0.0 0.9 0.00 0.00 0.00 54 1013.8
20260830085446 56 273 0.0 1.7 0.00 0.00 0.00 53 1013.7
20260830084946 56 231 0.9 2.6 0.00 0.00 0.00 53 1013.8
20260830084448 56 280 0.9 2.6 0.00 0.00 0.00 56 1013.8
20260830083948 56 206 0.0 1.7 0.00 0.00 0.00 54 1013.8
20260830083445 57 225 0.9 2.6 0.00 0.00 0.00 56 1013.9
20260830082945 57 150 0.9 2.6 0.00 0.00 0.00 52 1013.7
20260830082446 57 355 0.9 4.3 0.00 0.00 0.00 53 1013.7
20260830081946 56 61 0.9 4.3 0.00 0.00 0.00 53 1013.7
20260830081445 56 321 0.0 3.5 0.00 0.00 0.00 53 1013.8
20260830080946 56 98 0.0 3.5 0.00 0.00 0.00 54 1013.8
20260830080446 56 198 0.0 1.7 0.00 0.00 0.00 54 1013.8
20260830075446 55 204 0.9 3.5 0.00 0.00 0.00 53 1013.9
20260830074945 56 38 0.9 2.6 0.00 0.00 0.00 56 1014.0
20260830074442 56 193 0.0 1.7 0.00 0.00 0.00 52 1013.8
20260830073941 56 241 1.7 8.7 0.00 0.00 0.00 51 1013.8
20260830073443 57 199 1.7 8.7 0.00 0.00 0.00 50 1013.8
20260830071943 56 111 0.0 2.6 0.00 0.00 0.00 53 1013.8
20260830071444 56 83 0.0 0.9 0.00 0.00 0.00 53 1013.9
20260830070942 56 243 0.0 0.9 0.00 0.00 0.00 50 1013.9
20260830070444 57 220 0.0 0.9 0.00 0.00 0.00 52 1013.8
20260830065443 57 65 0.0 2.6 0.00 0.00 0.00 49 1013.8
20260830064943 58 65 0.0 2.6 0.00 0.00 0.00 48 1013.7
20260830063941 58 93 0.0 0.9 0.00 0.00 0.00 47 1013.7
20260830063441 58 105 0.9 2.6 0.00 0.00 0.00 47 1013.7
20260830062938 58 74 0.9 2.6 0.00 0.00 0.00 47 1013.7
20260830062438 58 108 0.9 2.6 0.00 0.00 0.00 47 1013.7
20260830061937 58 218 0.9 2.6 0.00 0.00 0.00 47 1013.7
20260830061436 58 280 0.0 1.7 0.00 0.00 0.00 47 1013.8
20260830060937 59 276 0.9 1.7 0.00 0.00 0.00 46 1013.9
20260830060434 59 110 0.0 1.7 0.00 0.00 0.00 46 1013.7
20260830055933 59 136 0.0 2.6 0.00 0.00 0.00 47 1013.7
20260830055431 59 51 0.0 2.6 0.00 0.00 0.00 48 1013.6
20260830054931 59 5 0.0 2.6 0.00 0.00 0.00 48 1013.4
20260830054430 59 301 0.0 2.6 0.00 0.00 0.00 47 1013.4
20260830053930 59 328 0.0 0.9 0.00 0.00 0.00 45 1013.4
20260830053430 59 343 0.0 1.7 0.00 0.00 0.00 44 1013.6
20260830052431 59 106 0.0 0.9 0.00 0.00 0.00 45 1013.7
20260830051931 59 225 0.0 0.9 0.00 0.00 0.00 47 1013.8
20260830050931 59 238 0.0 1.7 0.00 0.00 0.00 49 1013.7
20260830045931 60 286 0.0 1.7 0.00 0.00 0.00 47 1013.7
20260830045431 60 286 0.0 1.7 0.00 0.00 0.00 45 1013.6
20260830044930 60 32 0.0 0.9 0.00 0.00 0.00 48 1013.7
20260830044431 60 325 0.0 0.9 0.00 0.00 0.00 44 1013.8